Hourly Data Report for July 18, 2021

FLIN FLON
MANITOBA
Current Station Operator: ECCC - MSC

54°41'00.000" N
101°41'00.000" W
303.90 m
5050919
71954
WFO

Download Data

Hourly Data (July 2021)
Hourly Data Report for July 18, 2021
TIME
LST
Temp Definition
°C
Dew Point Definition
°C
Rel Hum Definition
%
Precip. Amount Definition
mm

Wind Dir Definition
10's deg

Wind Spd Definition
km/h
Visibility Definition
km
Stn Press Definition
kPa
Hmdx Definition


Wind Chill Definition


Weather Definition


00:00 12.5 11.2 92 0.3 7 17   98.47     LegendNANA
01:00 12.2 10.9 91 0.0 1 10   98.71     LegendNANA
02:00 12.4 11.3 93 0.9 6 14   98.50     LegendNANA
03:00 12.3 11.4 95 0.0 9 12   98.39     LegendNANA
04:00 12.5 11.5 94 0.0 10 9   98.42     LegendNANA
05:00 12.8 11.9 94 0.0 9 9   98.39     LegendNANA
06:00 13.4 12.7 96 0.3 8 9   98.42     LegendNANA
07:00 13.0 12.5 97 0.0 5 11   98.45     LegendNANA
08:00 12.6 12.2 97 0.0 6 13   98.45     LegendNANA
09:00 12.7 12.1 97 0.0 6 13   98.45     LegendNANA
10:00 12.3 11.4 94 0.0 6 16   98.49     LegendNANA
11:00 12.1 11.4 96 0.0 5 12   98.52     LegendNANA
12:00 12.3 11.6 95 0.0 6 12   98.51     LegendNANA
13:00 12.3 11.5 95 0.1 5 10   98.55     LegendNANA
14:00 12.8 11.7 93 0.0 4 11   98.56     LegendNANA
15:00 12.6 11.3 92 0.0 2 14   98.59     LegendNANA
16:00 12.7 11.5 92 0.0 4 12   98.65     LegendNANA
17:00 12.8 11.5 92 0.0 7 12   98.68     LegendNANA
18:00 12.7 11.3 91 0.0 4 11   98.70     LegendNANA
19:00 12.3 10.8 91 0.0 4 10   98.74     LegendNANA
20:00 12.1 10.7 91 0.0 6 11   98.78     LegendNANA
21:00 12.0 10.7 92 0.0 6 10   98.82     LegendNANA
22:00 11.7 10.5 92 0.0 5 10   98.85     LegendNANA
23:00 11.6 9.9 89 0.0 6 12   98.85     LegendNANA

Notes on Data Quality.

Legend

  • E = Estimated
  • M = Missing
  • NA = Not Available*
  • [empty] = Indicates an unobserved value
Date modified: